Weather History for KCKN - August, 2012

Change the Weather History Date:

Sunday, August 12, 2012

  Actual Average Record
Temperature  
Mean Temperature 66 °F -  
Max Temperature 73 °F 75 °F 91 °F (2015)
Min Temperature 59 °F 52 °F 44 °F (2004)
Cooling Degree Days 1    
Growing Degree Days 16 (Base 50)    
Moisture  
Dew Point 60 °F    
Average Humidity 84    
Maximum Humidity 100    
Minimum Humidity 65    
Precipitation  
Precipitation 0.01 in - - ()
Sea Level Pressure  
Sea Level Pressure 30.00 in    
Wind  
Wind Speed 6 mph (West)    
Max Wind Speed 12 mph    
Max Gust Speed -    
Visibility 10 miles    
Events Rain    
Averages and records for this station are not official NWS values.
T = Trace of Precipitation, MM = Missing Value Source: NWS Daily Summary

Daily Weather History Graph

Daily Weather History Graph

Search for Another Location

Airport or City:

Trip Planner

Search our weather history database for the weather conditions in past years. The results will help you decide how hot, cold, wet, or windy it might be!

Date:

Astronomy

Aug. 12, 2012 Rise Set
Actual Time 6:18 AM CDT 8:43 PM CDT
Civil Twilight 5:43 AM CDT 9:17 PM CDT
Nautical Twilight 5:00 AM CDT 10:00 PM CDT
Astronomical Twilight 4:10 AM CDT 10:50 PM CDT
Moon 1:23 AM CDT (8/12) 5:18 PM CDT (8/12)
Length of Visible Light 15h 33m
Length of Day
14h 25m
Waning Crescent, 24% of the Moon is Illuminated
Aug 12
Waning Crescent
Aug 17
New
Aug 24
First Quarter
Aug 31
Full
Sep 8
Last Quarter

Hourly Weather History & Observations

Time (CDT) Temp. Dew Point Humidity Pressure Visibility Wind Dir Wind Speed Gust Speed Precip Events Conditions
12:14 AM 60.8 °F 57.2 °F 88% 30.01 in 10.0 mi SSE 5.8 mph - N/A   Clear
12:34 AM 60.8 °F 57.2 °F 88% 30.00 in 10.0 mi SSE 4.6 mph - N/A   Clear
12:55 AM 60.8 °F 57.2 °F 88% 30.00 in 10.0 mi SSE 4.6 mph - N/A   Clear
1:14 AM 60.8 °F 57.2 °F 88% 29.99 in 10.0 mi SSE 4.6 mph - N/A   Clear
1:34 AM 60.8 °F 57.2 °F 88% 29.99 in 10.0 mi SSE 5.8 mph - N/A   Clear
1:55 AM 60.8 °F 57.2 °F 88% 29.99 in 10.0 mi South 4.6 mph - N/A   Clear
2:14 AM 62.6 °F 57.2 °F 82% 29.99 in 10.0 mi South 6.9 mph - N/A   Clear
2:35 AM 62.6 °F 57.2 °F 82% 29.99 in 10.0 mi South 4.6 mph - N/A   Clear
2:54 AM 60.8 °F 57.2 °F 88% 29.98 in 10.0 mi SSW 4.6 mph - N/A   Clear
3:14 AM 60.8 °F 57.2 °F 88% 29.99 in 10.0 mi South 4.6 mph - N/A   Clear
3:35 AM 60.8 °F 57.2 °F 88% 29.99 in 10.0 mi South 3.5 mph - N/A   Clear
3:54 AM 60.8 °F 57.2 °F 88% 29.99 in 10.0 mi South 6.9 mph - N/A   Clear
4:14 AM 60.8 °F 59.0 °F 94% 29.99 in 10.0 mi SW 4.6 mph - N/A   Clear
4:35 AM 60.8 °F 59.0 °F 94% 29.99 in 10.0 mi WSW 3.5 mph - N/A   Clear
4:54 AM 60.8 °F 59.0 °F 94% 29.99 in 10.0 mi SSW 3.5 mph - N/A   Clear
5:14 AM 60.8 °F 59.0 °F 94% 30.00 in 10.0 mi SSW 3.5 mph - N/A   Clear
5:35 AM 60.8 °F 59.0 °F 94% 30.00 in 10.0 mi SSW 4.6 mph - N/A   Clear
5:54 AM 60.8 °F 57.2 °F 88% 30.00 in 10.0 mi Calm Calm - N/A   Clear
6:14 AM 59.0 °F 57.2 °F 94% 30.00 in 10.0 mi South 3.5 mph - N/A   Clear
6:35 AM 59.0 °F 57.2 °F 94% 30.01 in 10.0 mi SW 3.5 mph - N/A   Clear
6:54 AM 59.0 °F 57.2 °F 94% 30.01 in 10.0 mi South 3.5 mph - N/A   Clear
7:14 AM 60.8 °F 59.0 °F 94% 30.01 in 10.0 mi SSW 4.6 mph - N/A   Scattered Clouds
7:35 AM 60.8 °F 60.8 °F 100% 30.01 in 10.0 mi SW 5.8 mph - N/A   Mostly Cloudy
7:54 AM 60.8 °F 60.8 °F 100% 30.02 in 10.0 mi SW 4.6 mph - N/A   Scattered Clouds
8:14 AM 62.6 °F 60.8 °F 94% 30.02 in 10.0 mi WSW 4.6 mph - N/A   Clear
8:35 AM 64.4 °F 60.8 °F 88% 30.01 in 10.0 mi WSW 3.5 mph - N/A   Clear
8:54 AM 64.4 °F 60.8 °F 88% 30.02 in 10.0 mi SW 5.8 mph - N/A   Clear
9:14 AM 64.4 °F 60.8 °F 88% 30.02 in 10.0 mi WSW 4.6 mph - N/A   Scattered Clouds
9:35 AM 66.2 °F 60.8 °F 83% 30.02 in 10.0 mi SW 6.9 mph - N/A   Scattered Clouds
9:54 AM 66.2 °F 60.8 °F 83% 30.02 in 10.0 mi West 5.8 mph - N/A   Clear
10:15 AM 66.2 °F 60.8 °F 83% 30.01 in 10.0 mi West 8.1 mph - N/A   Clear
10:35 AM 66.2 °F 60.8 °F 83% 30.01 in 10.0 mi West 6.9 mph - N/A   Clear
10:54 AM 68.0 °F 62.6 °F 83% 30.01 in 10.0 mi WSW 6.9 mph - N/A   Clear
11:15 AM 69.8 °F 62.6 °F 78% 30.01 in 10.0 mi WNW 8.1 mph - N/A   Clear
11:35 AM 69.8 °F 60.8 °F 73% 30.01 in 10.0 mi West 8.1 mph - N/A   Scattered Clouds
11:54 AM 69.8 °F 62.6 °F 78% 30.01 in 10.0 mi NW 9.2 mph - N/A   Scattered Clouds
12:15 PM 69.8 °F 62.6 °F 78% 30.01 in 10.0 mi WNW 8.1 mph - N/A   Scattered Clouds
12:34 PM 69.8 °F 62.6 °F 78% 30.01 in 10.0 mi NW 8.1 mph - N/A   Scattered Clouds
12:54 PM 69.8 °F 62.6 °F 78% 30.01 in 10.0 mi NW 10.4 mph - N/A   Clear
1:15 PM 69.8 °F 62.6 °F 78% 30.00 in 10.0 mi NW 11.5 mph - N/A   Clear
1:34 PM 69.8 °F 62.6 °F 78% 30.00 in 10.0 mi NW 11.5 mph - N/A   Clear
1:55 PM 69.8 °F 62.6 °F 78% 30.01 in 10.0 mi NW 11.5 mph - N/A   Scattered Clouds
2:15 PM 68.0 °F 62.6 °F 83% 30.01 in 10.0 mi WNW 9.2 mph - N/A Rain Light Rain
2:34 PM 68.0 °F 62.6 °F 83% 30.01 in 10.0 mi WNW 9.2 mph - N/A Rain Light Rain
2:55 PM 69.8 °F 62.6 °F 78% 30.01 in 10.0 mi NW 10.4 mph - N/A   Scattered Clouds
3:14 PM 69.8 °F 62.6 °F 78% 30.01 in 10.0 mi NW 8.1 mph - N/A   Clear
3:34 PM 69.8 °F 62.6 °F 78% 30.00 in 10.0 mi WNW 6.9 mph - N/A   Clear
3:55 PM 71.6 °F 62.6 °F 73% 29.99 in 10.0 mi WNW 4.6 mph - N/A   Clear
4:14 PM 71.6 °F 62.6 °F 73% 29.99 in 10.0 mi NNW 8.1 mph - N/A   Clear
4:34 PM 71.6 °F 62.6 °F 73% 29.98 in 10.0 mi NW 4.6 mph - N/A   Clear
4:55 PM 73.4 °F 60.8 °F 65% 29.98 in 10.0 mi NNW 3.5 mph - N/A   Scattered Clouds
5:14 PM 73.4 °F 60.8 °F 65% 29.98 in 10.0 mi NNW 3.5 mph - N/A   Scattered Clouds
5:34 PM 73.4 °F 60.8 °F 65% 29.98 in 10.0 mi WNW 6.9 mph - N/A   Clear
5:55 PM 73.4 °F 60.8 °F 65% 29.98 in 10.0 mi WNW 6.9 mph - N/A   Clear
6:14 PM 73.4 °F 60.8 °F 65% 29.97 in 10.0 mi West 8.1 mph - N/A   Clear
6:34 PM 71.6 °F 62.6 °F 73% 29.98 in 10.0 mi West 8.1 mph - N/A   Scattered Clouds
6:55 PM 69.8 °F 62.6 °F 78% 29.99 in 10.0 mi NW 8.1 mph - N/A   Drizzle
7:14 PM 68.0 °F 60.8 °F 78% 29.98 in 10.0 mi Calm Calm - N/A Rain Light Rain
7:34 PM 69.8 °F 60.8 °F 73% 29.98 in 10.0 mi Calm Calm - N/A   Mostly Cloudy
7:55 PM 71.6 °F 62.6 °F 73% 29.98 in 10.0 mi West 3.5 mph - N/A   Scattered Clouds
8:14 PM 69.8 °F 62.6 °F 78% 29.99 in 10.0 mi West 4.6 mph - N/A   Clear
8:35 PM 68.0 °F 62.6 °F 83% 29.99 in 10.0 mi WSW 3.5 mph - N/A   Clear
8:55 PM 68.0 °F 62.6 °F 83% 30.00 in 10.0 mi West 3.5 mph - N/A   Scattered Clouds
9:14 PM 62.6 °F 59.0 °F 88% 30.00 in 10.0 mi West 9.2 mph - 0.01 in Rain Light Rain
9:34 PM 62.6 °F 60.8 °F 94% 30.00 in 10.0 mi West 6.9 mph - 0.01 in   Scattered Clouds
9:55 PM 62.6 °F 60.8 °F 94% 30.00 in 10.0 mi West 6.9 mph - N/A   Scattered Clouds
10:14 PM 62.6 °F 60.8 °F 94% 30.01 in 10.0 mi NW 5.8 mph - N/A   Mostly Cloudy
10:35 PM 62.6 °F 60.8 °F 94% 30.01 in 10.0 mi NW 4.6 mph - N/A   Mostly Cloudy
10:54 PM 62.6 °F 60.8 °F 94% 30.01 in 10.0 mi NNW 4.6 mph - N/A   Mostly Cloudy
11:14 PM 62.6 °F 60.8 °F 94% 30.01 in 10.0 mi NW 5.8 mph - N/A   Scattered Clouds
11:35 PM 60.8 °F 59.0 °F 94% 30.01 in 10.0 mi NW 5.8 mph - N/A   Scattered Clouds
11:54 PM 60.8 °F 57.2 °F 88% 30.01 in 10.0 mi NW 6.9 mph - N/A   Clear